Total_Precipitation_Accumulation
0.62 1.05 0.72 1.01 0.89 0.69 0.73 1.00 0.81 0.28 0.42 0.32 0.24 0.12 0.08 0.12 0.19 0.18 0.09 0.13 0.19 0.16 0.10 0.14 0.16 0.17 0.19 0.10 0.20 0.19 0.10 0.16 0.35 0.41 0.32 0.27 0.33 0.20 0.35 0.26 0.20 0.24
0.57 1.08 1.15 1.16 0.93 0.79 0.84 0.65 0.68 0.55 0.32 0.43 0.17 0.21 0.13 0.05 0.05 0.05 0.12 0.09 0.09 0.06 0.08 0.13 0.37 0.27 0.22 0.13 0.25 0.21 0.20 0.29 0.32 0.42 0.34 0.33 0.29 0.50 0.30 0.27 0.48 0.15
0.72 0.56 0.72 0.77 0.68 0.83 0.75 0.71 0.41 0.57 0.39 0.32 0.40 0.41 0.30 0.11 0.08 0.05 0.09 0.10 0.08 0.08 0.05 0.05 0.10 0.13 0.08 0.19 0.18 0.22 0.18 0.26 0.31 0.30 0.21 0.24 0.40 0.37 0.43 0.41 0.35 0.33
0.56 0.57 0.60 0.94 0.74 0.77 0.97 1.00 0.76 0.31 0.40 0.37 0.27 0.30 0.12 0.19 0.15 0.10 0.15 0.08 0.14 0.11 0.10 0.16 0.16 0.09 0.09 0.10 0.24 0.23 0.22 0.26 0.32 0.25 0.26 0.43 0.38 0.24 0.24 0.33 0.16 0.25
0.56 0.62 0.44 0.69 0.79 1.10 0.88 0.52 0.44 0.31 0.24 0.20 0.19 0.15 0.13 0.13 0.10 0.18 0.24 0.12 0.16 0.49 0.24 0.08 0.12 0.09 0.09 0.11 0.22 0.27 0.18 0.29 0.30 0.29 0.30 0.26 0.27 0.15 0.18 0.19 0.33 0.35
0.97 0.92 0.80 1.03 1.09 1.00 0.80 0.45 0.31 0.50 0.38 0.29 0.27 0.21 0.11 0.09 0.10 0.18 0.26 0.27 0.29 0.21 0.17 0.21 0.32 0.26 0.40 0.21 0.17 0.19 0.25 0.20 0.34 0.24 0.28 0.22 0.18 0.18 0.19 0.20 0.20 0.27
0.93 1.19 0.97 0.92 0.92 0.61 0.77 0.73 0.65 0.43 0.36 0.44 0.86 0.31 0.22 0.19 0.16 0.18 0.24 0.42 0.23 0.20 0.13 0.29 0.58 0.34 0.25 0.24 0.40 0.44 0.14 0.07 0.15 0.40 0.31 0.21 0.20 0.26 0.20 0.16 0.16 0.27
1.10 1.31 1.61 1.13 1.16 1.08 0.89 0.80 0.65 0.53 0.48 0.54 0.33 0.62 0.30 0.24 0.19 0.12 0.27 0.28 0.31 0.22 0.22 0.29 0.21 0.51 0.59 0.36 0.38 0.22 0.26 0.16 0.18 0.20 0.19 0.09 0.10 0.17 0.24 0.17 0.12 0.09
2.98 2.00 1.57 1.67 1.35 0.95 0.73 0.82 0.74 0.83 0.41 0.52 0.49 0.52 0.43 0.22 0.16 0.25 0.13 0.24 0.40 0.40 0.35 0.24 0.23 0.55 0.30 0.34 0.30 0.31 0.34 0.24 0.37 0.34 0.33 0.13 0.12 0.20 0.21 0.27 0.27 0.25
1.86 1.67 1.87 2.54 1.97 1.38 1.26 1.20 0.83 0.83 0.72 0.61 0.72 0.45 0.28 0.14 0.11 0.32 0.25 0.82 0.59 0.33 0.21 0.15 0.68 0.53 0.52 0.34 0.35 0.29 0.38 0.19 0.44 0.43 0.27 0.28 0.11 0.13 0.43 0.63 0.42 0.35
2.42 2.54 2.79 2.34 1.27 1.11 0.99 1.28 1.00 1.10 0.90 0.67 0.62 0.53 0.55 0.40 0.45 0.64 0.88 0.57 0.40 0.31 0.53 0.44 0.39 0.34 0.44 0.60 0.57 0.37 0.39 0.70 0.79 0.57 0.34 0.22 0.29 0.25 0.40 0.75 0.51 0.42
2.31 2.08 1.78 1.38 1.12 0.99 1.03 1.19 1.04 0.88 1.04 1.04 0.73 0.79 1.05 0.75 1.09 1.11 0.96 0.75 0.69 0.50 0.54 0.58 0.61 0.65 0.59 0.80 0.62 0.84 0.68 0.84 0.50 0.42 0.22 0.28 0.13 0.63 0.94 0.95 0.95 0.60
2.74 2.19 2.21 1.58 1.04 1.46 1.41 1.59 1.17 1.04 1.21 1.03 1.24 1.20 1.20 1.13 1.34 1.12 0.90 0.78 0.61 0.36 0.44 0.39 0.42 0.67 1.19 1.38 1.13 1.11 1.04 0.64 0.35 0.26 0.27 0.43 0.42 0.74 0.72 1.21 1.26 1.17
2.12 2.46 3.01 2.33 2.13 3.06 2.05 1.39 1.77 1.25 1.54 1.35 1.85 1.54 1.27 1.21 1.08 0.97 0.83 0.81 0.67 0.56 0.58 0.68 0.89 0.81 0.70 1.10 0.77 0.57 0.54 0.51 0.33 0.43 0.92 0.76 0.43 0.61 0.71 0.98 1.40 1.42
3.45 3.56 3.03 3.32 2.59 3.32 3.09 1.97 2.19 2.79 2.08 2.34 1.28 1.64 2.14 1.64 1.34 0.90 0.71 0.72 0.64 0.54 0.68 0.48 0.66 0.57 0.34 0.35 0.73 0.63 0.76 0.49 0.49 0.62 0.64 0.46 0.86 0.53 0.59 0.89 1.68 1.50
3.34 2.82 3.41 3.89 3.45 3.99 4.32 2.93 2.68 3.16 3.17 2.30 1.61 1.72 1.60 1.61 1.29 1.00 0.79 0.73 0.79 0.65 0.46 0.70 0.91 0.77 0.50 0.44 0.42 0.68 0.81 0.62 0.62 0.64 0.86 0.62 0.58 0.56 0.62 0.94 1.06 1.37
4.04 3.48 2.98 3.51 3.42 3.51 4.08 3.51 2.77 2.23 1.99 1.97 1.59 1.24 1.27 1.23 1.30 1.21 0.92 1.20 1.06 1.08 1.24 1.32 1.04 1.08 0.59 0.95 0.72 0.54 0.71 0.78 0.49 0.58 0.75 0.67 0.57 0.46 1.11 1.42 1.12 1.24
3.09 4.06 3.36 2.87 2.89 3.99 3.64 3.00 2.69 2.05 2.03 1.84 1.35 1.37 1.12 1.07 1.20 1.07 0.82 0.94 0.72 1.07 0.91 0.95 1.12 0.85 0.97 0.92 0.51 0.46 0.40 0.42 0.58 0.59 0.94 0.98 0.91 0.81 0.72 0.78 1.19 1.33
3.92 4.66 3.47 2.94 3.56 4.71 4.32 4.11 2.61 2.49 2.42 1.98 1.36 1.59 1.66 1.11 1.01 1.26 1.10 0.83 0.58 0.98 0.99 0.61 0.61 1.83 0.93 0.47 0.32 0.20 0.13 0.21 0.51 0.96 0.80 0.80 1.06 1.21 1.16 0.89 1.33 1.64
3.63 3.36 3.17 3.34 3.75 4.87 4.34 2.73 2.89 1.95 2.23 3.28 2.03 1.50 1.41 1.13 1.14 1.16 0.82 0.97 0.69 0.87 1.03 1.31 1.25 1.07 0.35 0.12 0.03 0.02 0.03 0.09 0.33 0.80 1.04 0.82 1.04 1.72 2.05 1.80 2.29 1.83
4.07 4.01 4.03 4.29 4.79 4.31 3.36 4.15 2.88 3.22 3.53 3.93 3.34 3.17 2.42 1.52 1.18 1.03 1.05 1.00 0.93 1.01 1.14 1.05 1.39 0.82 0.14 0.05 0.02 0.02 0.03 0.08 0.15 0.78 0.86 0.52 0.83 1.04 1.27 2.00 2.27 2.70
3.40 3.69 4.35 5.51 5.54 5.05 4.04 3.90 3.87 3.76 4.50 4.39 3.51 3.00 2.48 1.64 1.65 1.16 1.14 1.25 1.25 1.07 0.62 0.75 0.59 0.29 0.04 0.03 0.02 0.03 0.06 0.05 0.20 0.52 0.59 0.63 0.98 1.93 1.52 2.35 2.37 2.19
3.44 4.58 4.10 3.94 3.98 4.66 4.57 4.70 5.10 5.28 4.64 4.30 3.31 2.86 2.29 1.55 1.93 1.64 1.39 2.07 1.67 1.31 1.15 1.26 0.96 0.63 0.15 0.34 0.33 0.53 0.60 0.43 0.34 0.61 0.77 0.97 1.28 1.47 1.37 2.49 2.49 1.89
4.50 4.48 5.11 5.10 4.32 4.42 4.27 5.13 5.43 5.26 4.96 5.13 4.41 4.28 4.91 5.01 3.71 2.83 3.75 3.57 2.81 1.55 1.27 1.22 0.74 0.58 0.55 0.69 0.81 0.16 0.13 0.18 0.69 0.90 0.89 1.54 1.67 2.18 2.01 1.87 1.74 1.51
3.76 4.44 4.62 5.19 5.19 4.53 5.21 5.80 5.08 4.65 4.25 4.24 5.16 4.37 5.30 5.96 4.46 4.09 5.60 4.47 3.46 2.66 1.16 1.21 0.73 0.94 0.83 0.90 1.43 1.11 1.17 1.38 1.31 1.57 1.87 1.90 1.99 2.99 3.38 1.78 2.47 1.82
3.68 4.50 3.69 4.46 4.24 4.76 6.24 5.85 6.31 6.60 5.93 4.73 5.19 6.48 6.61 4.66 5.14 5.95 5.43 4.14 2.95 2.46 2.35 1.84 1.81 1.56 2.08 1.20 1.49 1.72 0.82 2.79 3.54 2.02 1.89 2.34 2.93 2.58 2.50 2.02 2.52 1.83